This is the latest recevied weather packets stored in our database for station/object DG6HD-13. If no packets are shown the sender has not sent any weather packets the latest 10 day(s).
| Time | Temp. | Humidity | Pressure | Rain* | Wind** | Luminosity | Snow |
|---|---|---|---|---|---|---|---|
| 1777666106 | 15.56° C | 43% | 1025.4 hPa | - | - | - | - |
| 1777665205 | 15.56° C | 42% | 1025.4 hPa | - | - | - | - |
| 1777664304 | 16.11° C | 42% | 1025.5 hPa | - | - | - | - |
| 1777663403 | 16.67° C | 42% | 1025.3 hPa | - | - | - | - |
| 1777662502 | 17.22° C | 41% | 1025.3 hPa | - | - | - | - |
| 1777661601 | 17.78° C | 40% | 1025.3 hPa | - | - | - | - |
| 1777660701 | 17.78° C | 40% | 1025.4 hPa | - | - | - | - |
| 1777659800 | 18.33° C | 38% | 1025.4 hPa | - | - | - | - |
| 1777658899 | 18.89° C | 37% | 1025.4 hPa | - | - | - | - |
| 1777657998 | 19.44° C | 36% | 1025.4 hPa | - | - | - | - |
| 1777657097 | 19.44° C | 36% | 1025.5 hPa | - | - | - | - |
| 1777656196 | 19.44° C | 35% | 1025.6 hPa | - | - | - | - |
| 1777655296 | 20° C | 35% | 1025.8 hPa | - | - | - | - |
| 1777654395 | 20° C | 34% | 1025.8 hPa | - | - | - | - |
| 1777653494 | 20° C | 33% | 1026 hPa | - | - | - | - |
| 1777652593 | 20.56° C | 34% | 1026.2 hPa | - | - | - | - |
| 1777651692 | 20.56° C | 34% | 1026.4 hPa | - | - | - | - |
| 1777650792 | 21.11° C | 33% | 1026.6 hPa | - | - | - | - |
| 1777649891 | 21.11° C | 32% | 1026.7 hPa | - | - | - | - |
| 1777648989 | 21.67° C | 31% | 1026.8 hPa | - | - | - | - |
| 1777648088 | 22.22° C | 31% | 1026.9 hPa | - | - | - | - |
| 1777647187 | 22.22° C | 32% | 1027.1 hPa | - | - | - | - |
| 1777646286 | 22.22° C | 31% | 1027.2 hPa | - | - | - | - |
| 1777645386 | 22.78° C | 30% | 1027.4 hPa | - | - | - | - |
| 1777644485 | 22.78° C | 31% | 1027.5 hPa | - | - | - | - |
* Rain since midnight (hover to see other rain measurements)
** Current wind speed in m/s (hover to see current wind gust speed)